Location: Mahannah Oil Field
(37.4664°N, 96.6003°W)
Time: 02:00:13
(UTC+00:00)

deb Explorer IX - Pass Details

Date: 22 January 2021
Orbit: 537 x 1102 km, 38.8° (Epoch: 25 February)

Event Time Altitude Azimuth Distance (km) Brightness Sun altitude
Rises 05:36:09 0° 283° (WNW) 3,066 - -67.6°
Reaches altitude 10° 05:38:45 10° 278° (W) 2,060 - -68.0°
Maximum altitude 05:43:16 48° 205° (SSW) 775 - -68.5°
Drops below altitude 10° 05:47:18 10° 130° (SE) 1,835 - -69.0°
Sets 05:49:30 0° 124° (SE) 2,694 - -69.3°
